Погода в Называевске

Погода в Называевске : погода сейчас, прогноз погоды и архив. Всё, что Вы хотите узнать о погоде в Называевске!

Хотите узнать прогноз погоды в Называевске? Тогда Вам сюда: Погода в Называевске

Поиск расширенной информации на нашем сайте:

Другие новости

Новости СМИ2

Главная страница сайта

Новости сайта

02.10.2013

Напоминаем, что на нашем новом сайте вы можете получить высокодетализированные прогнозы погоды по пунктам России, СНГ и мира (включающие важные для авиации метеовеличины, такие как направление и скорость ветра, видимость, явления погоды, количество и форма облачности, нижняя и верхняя граница облачности), а также ознакомиться с разнообразными материалами по авиационной метеорологии и подборкой полезных ссылок на эту тему.

Сайт Метеоцентр.Азия посвящён разработке технологий оптимизации авиаметеорологического обслуживания, включая проектирование и перспективное создание нескольких автоматизированных авиаметеорологических систем:
- система выпуска высокодетальных прогностических карт явлений погоды для нижнего воздушного пространства по России и ближнему зарубежью;
- система верификации прогнозов TAF (выпускаемых синоптиками официальных АМСГ РФ и ближнего зарубежья) и AUTOTAF (выпускаемых сайтом Метеоцентр.Азия) - выявление ошибок, онлайн-сопоставление с фактической погодой METAR, автоматическое внесение коррективов в прогнозы при резком отклонении фактической погоды от прогноза, подсчёт оправдываемости прогнозов по элементам и в целом;
- система обработки, анализа и отображения авиаметеорологической информации для применения провайдерами метеорологической информации.

Рекомендуем: 20% скидка термостат лабораторный . Биотехнологии.

Погода в Называевске - сегодня

Время (UTC), дата Ветер
(°,м/с) 
Видим.   Явления Облачность Т
(°С)
Тd
(°С)
f(%) Тe
(°С)
Pmin
(гПа)
dP
(гПа)
Po
(мм)
O2
(г/м3)
Тmin Tmax R s Состояние
почвы
18 21.02.17 240 (ЮЗ) 7-11{14}  20000 м  позёмок  10/10 480 м 
[Ns]
+0.1 -3.7 76 -4  1007.6  0.9  744  300           
21 21.02.17 240 (ЮЗ) 7-11{12}  20000 м    10/10 480 м 
[Ns]
-0.2 -3.6 78 -4  1008.5  0.9  745  301           
00 22.02.17 240 (ЮЗ) 7-12{13}  20000 м    10/10 450 м 
[Ns]
-0.7 -3.9 79 -5  1010.2  1.6  746  302           
03 22.02.17 250 (З) 8-12{14}  30000 м    9/9 700 м кучево-дожд. 
[Cb cap]
-1.1 -4.6 77 -6  1011.7  1.5  747  303  -1.1      52  неравномерный
сухой снег
100% 
06 22.02.17 240 (ЮЗ) 6-10{13}  13000 м    10/10 540 м кучево-дожд. 
[Cb cap]
+0.1 -3.1 79 -3  1013.4  1.7  748  302           
09 22.02.17 210 (ЮЗ) 7-10{12}  40000 м    9/0 верхняя 
[Ci sp]
-0.6 -4.7 74 -5  1014.4  0.9  749  303           
12 22.02.17 210 (ЮЗ) 6-10{12}  35000 м    9/0 верхняя 
[Cc]
-1.2 -5.2 74 -5  1015  0.6  749  304           
15 22.02.17 220 (ЮЗ) 6-10{11}  20000 м    9/0 верхняя 
[Cs]
-1.9 -5.3 78 -6  1016.6  1.5  751  305    +0.5       
18 22.02.17 230 (ЮЗ) 4{10}  20000 м    ясно 
-1.8 -6.9 68 -5  1018.1  1.5  752  306           
21 22.02.17 220 (ЮЗ) 20000 м    ясно 
-2.8 -7.8 68 -6  1019.1  752  307           
00 23.02.17 220 (ЮЗ) 20000 м    ясно 
-4.4 -8.6 72 -7  1020.5  1.2  753  309           
03 23.02.17 200 (Ю) 15000 м    10/0 верхняя 
[Ci sp]
-6.6 -9.3 81 -10  1021.5  0.9  754  312  -6.6      50  неравномерный
сухой снег
100% 
06 23.02.17 200 (Ю) 20000 м    10/0 верхняя 
[Ci sp]
-4.6 -8.2 76 -8  1022.1  0.7  755  310  -6.7         
09 23.02.17 200 (Ю) 40000 м    10/0 верхняя 
[Ci sp]
-0.7 -9.1 53 -3  1021.9  755  306           
12 23.02.17 190 (Ю) 40000 м    10/0 верхняя 
[Ci sp]
-2.9 -9 63 -6  1022  755  308           
15 23.02.17 190 (Ю) 20000 м    6/0 верхняя 
[Ci sp]
-6.2 -10.5 72 -10  1022.1  0.1  754  312    -0.3       
18 23.02.17 180 (Ю) 20000 м    ясно 
-8.9 -11.4 82 -12  1021.6  -0.7  754  315           
21 23.02.17 170 (Ю) 20000 м    ясно 
-10.6 -12.7 85 -14  1020.4  -1.2  753  316           
00 24.02.17 200 (Ю) 20000 м    ясно 
-12.3 -14.2 86 -14  1020.2  -0.3  753  319           
03 24.02.17 170 (Ю) 30000 м    3/0 верхняя 
[Ci fib]
-12.9 -15.4 81 -16  1019.8  -0.5  752  320  -13      50  неравномерный
сухой снег
100% 
06 24.02.17 210 (ЮЗ) 40000 м    4/0 верхняя 
[Ci fib]
-7.6 -13 65 -9  1018.7  -0.7  752  313           
09 24.02.17 160 (Ю) 40000 м    6/0 верхняя 
[Ci sp]
-4.7 -11.9 57 -7  1018.2  -0.3  752  309           
12 24.02.17 170 (Ю) 40000 м    8/0 верхняя 
[Ci sp]
-6.2 -12.6 60 -8  1018.3  0.1  752  311           
15 24.02.17 160 (Ю) 20000 м    ясно 
-9.9 -14.1 71 -13  1017.5  -1  751  315    -4.5       
18 24.02.17 140 (ЮВ) 20000 м    ясно 
-13 -15.1 84 -15  1017.3  -0.4  751  319           
Время (UTC), дата Ветер
(°,м/с) 
Видим.   Явления Облачность Т
(°С)
Тd
(°С)
f(%) Тe
(°С)
Pmin
(гПа)
dP
(гПа)
Po
(мм)
O2
(г/м3)
Тmin Tmax R s Состояние
почвы

Для получения пояснительной информации подведите курсор к названию столбца.

ПОГОДА в Называевске - архив

Всё, что Вы хотите узнать о погоде в Называевске - удобно и подробно!

Выберите нужную дату (начиная с 1 января 2015* года) и нажмите кнопку "Найти".
Будут отображены архивные сводки погоды по пункту Называевск, начиная с указанной даты.


Отображать данные в формате CSV (для использования в таблицах Excel)


Внимание! Наш архив погоды предназначен исключительно для личного некоммерческого использования в познавательных целях. Если Вам необходимы официальные справки о состоянии погоды (для производственных, юридических, коммерческих и т.п. целей), обращайтесь в органы Росгидромета.

*Примечание: данная дата относится к архиву по метеостанциям СССР (Россия, СНГ, Балтия).
Архив по метеостанциям Зарубежной Европы и Азии (кроме Китая) хранится 10 дней, по другим регионам земного шара (Китай, Африка, Америка, Австралия, Океания) - 1 день.

Называевск - район местоположения метеостанции


Название, широта, долгота, высота метеостанции:
Называевск 55.6°ш. 71.4°д. 126 м над ур. моря [Российская Федерация]

Дополнительная информация

В oтличие oт бoльшинства пoгoдных сайтoв мы публикуем пoдрoбную метеoинфoрмацию в детальнoм прoфессиoнальнoм фoрмате.

Характеристики температуры и влажнoсти вoздуха измеряются на высoте 2 м в тени вдали oт зданий и деревьев.
Скoрoсть ветра измеряется на высoте 10 м (на урoвне рoста челoвека скoрoсть ветра ниже в 1.5-2 раза). Если метеoстанция нахoдится в гoрoде или в лесу, тo скoрoсть ветра занижена на 2-4 м/с пo сравнению с oткрытым местoм. Скoрoсть ветра над акватoриями крупных рек и oзёр, а также на вершинах хoлмoв на 2-5 м/с выше, чем в oбычных услoвиях.
Атмoсфернoе давление в разных тoчках местнoсти мoжет значительнo oтличаться oт давления на метеoстанции, в зависимoсти oт услoвий рельефа (при пoдъёме на 10 м давление пoнижается примернo на 1 мм рт.ст.).